Weather observations for the past three days for
Gillette, Gillette-Campbell County Airport
Imperial (Metric)
Date Time (mdt) Wind (mph) Vis. (mi.) Weather Sky Cond. Temperature (ºF) Relative Humidity Wind Chill (°F) Heat Index (°F) Pressure Precipitation (in)
Air Dwpt 6 hour altimeter (in) sea level (mb) 1 hr 3 hr 6 hr
Max. Min.
12 05:53 Vrbl 3 10.00 Fair CLR 64.9 44.1 84 63 47% 30.04 1011.4
12 04:53 SW 6 10.00 Fair CLR 66.9 45 45% 30.04 1011.2
12 03:53 NW 6 10.00 Fair CLR 64.9 46 51% 30.07 1012.4
12 02:53 N 7 10.00 Mostly Cloudy FEW055 BKN095 BKN110 79 42.1 27% 78 30.08 1011.9
12 01:53 S 10 10.00 Mostly Cloudy FEW060 SCT090 BKN110 78.1 45 31% 78 30.02 1009.9
12 00:53 SE 13 10.00 Fair CLR 81 41 24% 79 30.01 1009.3
11 23:53 Vrbl 7 G 22 10.00 Thunderstorm Light Rain FEW080 BKN110 77 46.9 96.1 69.1 35% 78 30.07 1011.7
11 22:53 SW 3 10.00 Fair CLR 70 43 38% 30.04 1011.2
11 21:53 SW 3 10.00 Fair CLR 71.1 42.1 35% 30.03 1010.8
11 20:53 E 3 10.00 Fair CLR 79 41 26% 78 30.02 1010.5
11 19:53 NE 14 10.00 Fair CLR 90 37 15% 86 30.01 1010.0
11 18:53 NE 12 G 22 10.00 Fair CLR 93.9 37 14% 89 30 1010.0
11 17:53 N 14 10.00 Fair CLR 95 36 100 95 13% 90 29.99 1009.7
11 16:53 N 13 10.00 Fair CLR 96.1 35.1 12% 91 30 1009.7
11 15:53 NW 12 G 24 10.00 Fair CLR 99 37 12% 94 30 1009.6
11 14:53 N 15 G 20 10.00 Fair CLR 99 35.1 11% 94 30.01 1010.0
11 13:53 N 15 G 25 10.00 Fair CLR 99 37 12% 94 30.02 1010.1
11 12:53 N 13 G 26 10.00 Fair CLR 97 39 13% 92 30.03 1010.6
11 11:53 N 12 G 22 10.00 Fair CLR 95 41 95 63 15% 91 30.04 1011.0
11 10:53 NW 13 G 23 10.00 Fair CLR 91.9 41 17% 88 30.04 1010.6
11 09:53 NW 12 10.00 Fair CLR 90 42.1 19% 86 30.04 1011.0
11 08:53 W 6 10.00 Fair CLR 82 45 27% 80 30.05 1011.6
11 07:53 S 8 10.00 Fair CLR 73 46.9 40% 30.04 1011.5
11 06:53 S 9 10.00 Fair CLR 66 50 56% 30.05 1011.8
11 05:53 SE 9 10.00 Fair CLR 63 51.1 75 63 65% 30.05 1012.1
11 04:53 S 18 10.00 Fair CLR 64.9 51.1 61% 30.05 1011.6
11 03:53 S 17 10.00 Fair CLR 66 51.1 59% 30.04 1011.3
11 02:53 S 14 10.00 Fair CLR 66.9 50 55% 30.05 1011.7
11 01:53 S 16 10.00 Fair CLR 70 50 49% 30.06 1012.2
11 00:53 S 15 10.00 Fair CLR 73 48.9 43% 30.08 1012.6
10 23:53 S 18 G 33 10.00 Fair CLR 75 46.9 93 73 37% 77 30.09 1012.9
10 22:53 S 17 10.00 A Few Clouds FEW050 FEW070 FEW110 79 43 28% 78 30.09 1012.9
10 21:53 SE 6 10.00 Fair CLR 75 48 39% 77 30.08 1012.8
10 20:53 SE 9 10.00 Fair CLR 80.1 44.1 28% 79 30.06 1011.9
10 19:53 E 8 10.00 Fair CLR 86 43 22% 83 30.04 1011.6
10 18:53 E 8 10.00 Fair CLR 91 41 17% 87 30.04 1011.8
10 17:53 E 7 10.00 Fair CLR 93 39.9 95 86 16% 89 30.06 1012.8
10 16:53 NE 9 10.00 Fair CLR 93.9 39.9 15% 90 30.06 1012.6
10 15:53 SE 9 10.00 Fair CLR 93 41 16% 89 30.07 1012.8
10 14:53 Calm 10.00 Fair CLR 91.9 41 17% 88 30.08 1013.4
10 13:53 Calm 10.00 Fair CLR 90 39.9 17% 86 30.11 1014.4
10 12:53 Vrbl 3 G 17 10.00 Fair CLR 88 39 18% 84 30.13 1015.6
10 11:53 S 9 10.00 Fair CLR 87.1 37 87.1 53.1 17% 84 30.15 1016.2
10 10:53 S 6 10.00 Fair CLR 84.9 36 17% 82 30.16 1016.6
10 09:53 Vrbl 6 10.00 Fair CLR 82 39 22% 80 30.17 1016.9
10 08:53 Vrbl 5 10.00 Fair CLR 80.1 46.9 31% 79 30.17 1016.4
10 07:53 NE 3 10.00 Fair CLR 71.1 46.9 42% 30.17 1016.4
10 06:53 NE 3 10.00 Fair CLR 63 46.9 56% 30.17 1016.5
10 05:53 Calm 10.00 Fair CLR 53.1 43 61 52 69% 30.16 1017.0
10 04:53 S 5 10.00 Fair CLR 55 43 64% 30.16 1016.6
10 03:53 S 3 10.00 Fair CLR 59 44.1 58% 30.15 1016.1
10 02:53 SE 5 10.00 Fair CLR 59 44.1 58% 30.16 1016.6
10 01:53 S 5 10.00 Fair CLR 57 43 60% 30.17 1017.1
10 00:53 S 5 10.00 Fair CLR 54 42.1 64% 30.19 1017.9
09 23:53 SW 3 10.00 Fair CLR 55 39.9 87.1 55 57% 30.19 1017.8
09 22:53 W 5 10.00 Fair CLR 57.9 41 53% 30.18 1017.5
09 21:53 S 3 10.00 Fair CLR 61 41 48% 30.17 1017.0
09 20:53 NE 6 10.00 Fair CLR 73.9 41 31% 30.14 1015.3
09 19:53 N 9 10.00 Fair CLR 82 39.9 22% 80 30.13 1015.0
09 18:53 NE 10 10.00 Fair CLR 86 37.9 18% 83 30.12 1014.8
09 17:53 NE 12 G 22 10.00 Fair CLR 87.1 39 90 84.9 18% 84 30.12 1015.2
09 16:53 NW 8 G 20 10.00 Fair CLR 88 37.9 17% 84 30.12 1015.6
09 15:53 N 9 G 18 10.00 Fair CLR 88 39 18% 84 30.12 1015.5
09 14:53 N 12 G 20 10.00 Fair CLR 87.1 37 17% 84 30.12 1015.4
09 13:53 Vrbl 6 G 21 10.00 Fair CLR 87.1 34 15% 84 30.13 1015.4
09 12:53 Vrbl 6 G 18 10.00 Fair CLR 86 35.1 16% 83 30.13 1015.6
09 11:53 N 16 G 24 10.00 Fair CLR 86 37.9 86 55 18% 83 30.13 1016.0
Date Time (mdt) Wind (mph) Vis. (mi.) Weather Sky Cond. Air Dwpt Max. Min. Relative Humidity Wind Chill (°F) Heat Index (°F) altimeter (in) sea level (mb) 1 hr 3 hr 6 hr
6 hour
Temperature (ºF) Pressure Precipitation (in)